Location: *
(47.2969°N, 10.2930°E)
Time: 10:03:15
(UTC+00:00)

ERS-1 Rocket - Pass Details

Date: 09 April 2020
Orbit: 754 x 757 km, 98.5° (Epoch: 06 June)

Event Time Altitude Azimuth Distance (km) Brightness Sun altitude
Exits shadow 20:46:57 78° 136° (SE) 777 2.8 -25.1°
Maximum altitude 20:47:15 84° 74° (ENE) 766 2.8 -25.2°
Drops below altitude 10° 20:52:19 10° 347° (NNW) 2,292 6.2 -25.7°
Sets 20:54:37 0° 347° (NNW) 3,221 7.2 -26.0°
